Location: Newark
(41.6500°N, 71.4833°W)
Time: 06:42:48
(UTC+00:00)

Courier 1B - Pass Details

Date: 21 January 2020
Orbit: 962 x 1209 km, 28.3° (Epoch: 27 February)

Event Time Altitude Azimuth Distance (km) Brightness Sun altitude
Rises 08:30:47 0° 220° (SW) 3,947 - -40.2°
Reaches altitude 10° 08:34:21 10° 204° (SSW) 3,031 - -39.6°
Maximum altitude 08:39:30 20° 160° (SSE) 2,416 - -38.6°
Exits shadow 08:39:42 20° 158° (SSE) 2,418 9.6 -38.6°
Drops below altitude 10° 08:44:47 10° 117° (ESE) 3,123 10.7 -37.6°
Sets 08:48:31 0° 102° (ESE) 4,104 11.6 -36.9°
